Weather in Medvezhenskiy

Russia / Stavropol Krai     45°43′35″N   41°36′18″E
temp.,
°C
wind,
m/s
gust,
m/s
humid.,
%
clouds,
%
prec.,
mm/h
press.,
hPa
HPBL,
m
20 april, tue
tue2000:00+13se3495100 0.0 101386
03:00+13e5898100 4.8 1009222
06:00+13ene61493100 2.7 1008445
09:00+17ese81475100 2.7 1005655
12:00+22s3463100 0.3 1004822
15:00+19wsw61275100 0.5 10061126
18:00+17wsw597694 0.4 1008389
21:00+13wsw61268100 0.4 1011773
21 april, wed
wed2100:00+10wsw7138181 0.0 1014847
03:00+10wsw51082100 0.0 1015758
06:00+9w3788100 0.0 1017239
09:00+12sw3473100 0.1 1019718
12:00+13ssw4570100 0.2 10191029
15:00+14ssw557082 0.4 10191111
18:00+14sw47755 0.4 1019509
21:00+10s48905 0.7 1021177
22 april, thu
thu2200:00+9sw3789100 0.0 1021123
03:00+9w3390100 0.0 102160
06:00+8wsw229199 0.0 102226
09:00+13nw117162 0.0 1023610
12:00+17se115511 0.0 10231446
15:00+17sse3254100 0.1 10221404
18:00+14sse2377100 0.9 102282
21:00+12se228299 1.3 102310
23 april, fri
fri2300:00+10se229037 0.6 102328
03:00+9sse22905 1.1 102313
06:00+10ssw11900 0.3 102410
09:00+15s11703 0.4 1024479
12:00+18ne11519 1.0 10231533
15:00+18ene224886 1.6 10222091
18:00+16ese225994 0.0 102219
21:00+15se226073 0.0 102223
24 april, sat
sat2400:00+12s227474 0.0 102115
03:00+11se227835 0.0 102010
06:00+10ese338378 0.0 102048
09:00+16se3666100 0.0 1019498
12:00+18sse3455100 0.0 1018993
15:00+18n2257100 0.0 1017910
18:00+16ne3364100 0.0 101745
21:00+15ene2260100 0.0 101818